User: anonymous   Login
Location: Baix
(44.7118°N, 4.7648°E)
Time: 11:59:00
(UTC+00:00)
Language:

ERBS - Orbit

View from above orbital plane
View from above orbital plane
View from above satellite
View from above satellite

Ground track
Ground track

The orbit data is extracted from the following two-line orbital elements,

1 15354U 84108B   20296.59143024 +.00005005 +00000-0 +94458-4 0  9990
2 15354 057.0054 243.2193 0004525 324.1036 035.9717 15.50324600987271
Epoch (UTC): 22 October 2020 14:11:39
Eccentricity: 0.0004525
inclination: 57.0054°
perigee height: 413 km
apogee height: 419 km
right ascension of ascending node: 243.2193°
argument of perigee: 324.1036°
revolutions per day: 15.50324600
mean anomaly at epoch: 35.9717°
orbit number at epoch: 98727

The dashed part of the orbit path shows where the satellite is in the earth's shadow,  

DLR